TimeCEST,TemperatureF,Dew PointF,Humidity,Sea Level PressureIn,VisibilityMPH,Wind Direction,Wind SpeedMPH,Gust SpeedMPH,PrecipitationIn,Events,Conditions,WindDirDegrees,DateUTC
12:30 AM,62.6,53.6,72,29.89,6.2,SSW,4.6,-,N/A,,Partly Cloudy,210,2012-10-10 22:30:00
1:00 AM,60.8,53.6,77,29.86,6.2,SW,3.5,-,N/A,,Partly Cloudy,220,2012-10-10 23:00:00
5:30 AM,60.8,53.6,77,29.83,6.2,WSW,6.9,-,N/A,,Mostly Cloudy,240,2012-10-11 03:30:00
6:00 AM,60.8,53.6,77,29.83,6.2,West,4.6,-,N/A,Rain,Light Rain,270,2012-10-11 04:00:00
6:30 AM,60.8,53.6,77,29.86,6.2,Variable,1.2,-,N/A,,Mostly Cloudy,0,2012-10-11 04:30:00
7:00 AM,60.8,53.6,77,29.86,1.6,WSW,6.9,-,N/A,Rain,Rain,250,2012-10-11 05:00:00
7:30 AM,59.0,53.6,82,29.86,6.2,West,3.5,-,N/A,,Mostly Cloudy,280,2012-10-11 05:30:00
8:00 AM,59.0,53.6,82,29.86,6.2,West,5.8,-,N/A,,Mostly Cloudy,270,2012-10-11 06:00:00
8:30 AM,59.0,53.6,82,29.86,6.2,Variable,2.3,-,N/A,,Mostly Cloudy,0,2012-10-11 06:30:00
9:00 AM,59.0,53.6,82,29.86,4.3,SW,3.5,-,N/A,,Light Drizzle,220,2012-10-11 07:00:00
9:30 AM,59.0,53.6,82,29.89,6.2,WNW,4.6,-,N/A,,Mostly Cloudy,290,2012-10-11 07:30:00
10:00 AM,60.8,53.6,77,29.89,6.2,WNW,5.8,-,N/A,,Mostly Cloudy,290,2012-10-11 08:00:00
10:30 AM,60.8,53.6,77,29.89,6.2,West,4.6,-,N/A,,Mostly Cloudy,260,2012-10-11 08:30:00
11:00 AM,59.0,53.6,82,29.92,1.2,NW,5.8,-,N/A,Rain,Drizzle,310,2012-10-11 09:00:00
11:11 AM,59.0,53.6,82,29.92,6.2,WNW,6.9,18.4,N/A,,Mostly Cloudy,290,2012-10-11 09:11:00
11:30 AM,60.8,53.6,77,29.92,6.2,WNW,5.8,-,N/A,,Mostly Cloudy,290,2012-10-11 09:30:00
12:00 PM,60.8,53.6,77,29.92,6.2,WNW,6.9,-,N/A,,Mostly Cloudy,300,2012-10-11 10:00:00
12:30 PM,62.6,55.4,77,29.92,6.2,NW,5.8,-,N/A,,Mostly Cloudy,310,2012-10-11 10:30:00
12:46 PM,59.0,51.8,77,29.92,3.1,NNW,11.5,-,N/A,Rain,Light Drizzle,330,2012-10-11 10:46:00
1:00 PM,59.0,51.8,77,29.92,1.6,NNW,10.4,-,N/A,Rain,Drizzle,330,2012-10-11 11:00:00
1:30 PM,57.2,51.8,82,29.95,3.1,NNW,5.8,-,N/A,Rain,Light Drizzle,340,2012-10-11 11:30:00
2:00 PM,59.0,51.8,77,29.95,3.1,NW,4.6,-,N/A,Rain,Light Drizzle,310,2012-10-11 12:00:00
2:30 PM,59.0,53.6,82,29.95,6.2,NNW,8.1,-,N/A,Rain,Light Drizzle,340,2012-10-11 12:30:00
3:00 PM,59.0,53.6,82,29.95,6.2,North,4.6,-,N/A,,Mostly Cloudy,350,2012-10-11 13:00:00
3:30 PM,60.8,51.8,72,29.95,6.2,NW,8.1,-,N/A,,Mostly Cloudy,320,2012-10-11 13:30:00
4:00 PM,60.8,51.8,72,29.95,6.2,NNW,6.9,-,N/A,,Mostly Cloudy,330,2012-10-11 14:00:00
4:30 PM,60.8,50.0,68,29.95,6.2,NNW,4.6,-,N/A,,Mostly Cloudy,330,2012-10-11 14:30:00
5:00 PM,60.8,50.0,68,29.95,6.2,NW,5.8,-,N/A,,Mostly Cloudy,310,2012-10-11 15:00:00
5:30 PM,60.8,50.0,68,29.95,6.2,NW,8.1,-,N/A,,Mostly Cloudy,310,2012-10-11 15:30:00
6:00 PM,60.8,48.2,63,29.95,6.2,NW,5.8,-,N/A,,Scattered Clouds,320,2012-10-11 16:00:00
6:30 PM,59.0,48.2,67,29.98,6.2,NW,8.1,20.7,N/A,,Mostly Cloudy,320,2012-10-11 16:30:00
7:00 PM,59.0,50.0,72,29.98,6.2,NNW,6.9,-,N/A,,Mostly Cloudy,340,2012-10-11 17:00:00
7:30 PM,59.0,50.0,72,29.98,6.2,Variable,2.3,-,N/A,,Partly Cloudy,0,2012-10-11 17:30:00
8:00 PM,59.0,50.0,72,30.01,6.2,NNW,3.5,-,N/A,,Scattered Clouds,330,2012-10-11 18:00:00
8:30 PM,57.2,50.0,77,30.01,6.2,NNW,4.6,-,N/A,,Scattered Clouds,330,2012-10-11 18:30:00
9:00 PM,57.2,48.2,72,30.01,6.2,Variable,2.3,-,N/A,,Scattered Clouds,0,2012-10-11 19:00:00
9:30 PM,57.2,48.2,72,30.04,6.2,Variable,1.2,-,N/A,,Scattered Clouds,0,2012-10-11 19:30:00
10:00 PM,57.2,48.2,72,30.04,6.2,Variable,2.3,-,N/A,,Scattered Clouds,0,2012-10-11 20:00:00
10:30 PM,55.4,48.2,77,30.04,2.5,NNW,9.2,25.3,N/A,Rain,Light Rain,330,2012-10-11 20:30:00
10:40 PM,55.4,48.2,77,30.04,3.7,NNW,9.2,-,N/A,Rain,Light Rain,340,2012-10-11 20:40:00
11:00 PM,55.4,48.2,77,30.06,6.2,NNW,6.9,-,N/A,,Mostly Cloudy,340,2012-10-11 21:00:00
11:06 PM,55.4,48.2,77,30.06,2.5,NNW,4.6,20.7,N/A,Rain,Light Rain,340,2012-10-11 21:06:00
11:16 PM,55.4,48.2,77,30.06,4.3,NNW,4.6,-,N/A,,Mostly Cloudy,330,2012-10-11 21:16:00
11:30 PM,55.4,48.2,77,30.06,5.6,Variable,2.3,-,N/A,,Mostly Cloudy,0,2012-10-11 21:30:00
11:34 PM,55.4,46.4,72,30.06,2.5,NNW,3.5,-,N/A,Rain,Light Rain,330,2012-10-11 21:34:00
11:44 PM,55.4,48.2,77,30.06,3.7,Variable,1.2,-,N/A,,Mostly Cloudy,0,2012-10-11 21:44:00